Date String (YYYY-MM-DD hh:mm:ss) UTC,Instrument flags,Ambient pressure (hPa),Sample flow (lpm),Bypass flow (lpm),Sample temperature (°C),Ambient temperature (°C),ASC tube jacket temperature (°C),LED temperature (°C),Box temperature (°C),Sample RH (%),Span deviation,Mass concentration (μg/m³),Mass concentration (μg/m³),Mass concentration (μg/m³)
DateTimeUTC,F1_M11,P_M11,Q1_M11,Q2_M11,T1_M11,T2_M11,T3_M11,T4_M11,T5_M11,U1_M11,ZSPAN_M11,X0_M11,X2_M11,X1_M11
2021-12-21 17:00:00,,0823.7,5.01,0.00,23.2,22.7,00.0,31.9,25.0,07.0,0000.0,0009.44,0001.84,0000.74
2021-12-21 17:01:00,,0823.7,5.00,0.00,23.2,22.7,00.0,32.0,25.0,07.1,0000.0,0009.62,0001.87,0000.73
2021-12-21 17:02:00,,0823.8,5.00,0.00,23.2,22.7,00.0,32.0,25.1,07.2,0000.0,0009.23,0001.83,0000.73
2021-12-21 17:03:00,,0823.9,5.01,0.00,23.3,22.7,00.0,32.0,25.1,07.2,0000.0,0009.15,0001.79,0000.73
2021-12-21 17:04:00,,0824.0,4.99,0.00,23.3,22.8,00.0,32.0,25.1,07.1,0000.0,0009.46,0001.74,0000.72
2021-12-21 17:05:00,,0824.0,5.00,0.00,23.3,22.8,00.0,32.1,25.2,07.1,0000.0,0009.42,0001.69,0000.72
2021-12-21 17:06:00,,0824.0,4.99,0.00,23.3,22.8,00.0,32.1,25.2,07.1,0000.0,0009.43,0001.62,0000.72
2021-12-21 17:07:00,,0824.0,5.01,0.00,23.3,22.8,00.0,32.1,25.2,07.0,0000.0,0009.60,0001.63,0000.71
2021-12-21 17:08:00,,0824.0,4.99,0.00,23.4,22.8,00.0,32.1,25.2,07.0,0000.0,0009.73,0001.74,0000.71
2021-12-21 17:09:00,,0824.1,5.02,0.00,23.4,22.9,00.0,32.2,25.3,07.0,0000.0,0009.74,0001.75,0000.71
2021-12-21 17:10:00,,0824.0,4.99,0.00,23.4,22.9,00.0,32.2,25.3,06.9,0000.0,0009.97,0001.78,0000.71
2021-12-21 17:11:00,,0824.1,5.00,0.00,23.4,22.9,00.0,32.2,25.3,06.9,0000.0,0009.92,0001.78,0000.71
2021-12-21 17:12:00,,0824.1,5.00,0.00,23.4,22.9,00.0,32.2,25.3,06.8,0000.0,0010.27,0001.71,0000.70
2021-12-21 17:13:00,,0824.2,4.99,0.00,23.5,22.9,00.0,32.3,25.3,06.9,0000.0,0010.74,0001.83,0000.69
2021-12-21 17:14:00,,0824.2,5.01,0.00,23.5,22.9,00.0,32.3,25.3,06.9,0000.0,0010.54,0001.91,0000.68
2021-12-21 17:15:00,,0824.2,4.99,0.00,23.5,22.9,00.0,32.3,25.3,06.9,0000.0,0010.44,0001.94,0000.67
2021-12-21 17:16:00,,0824.2,5.00,0.00,23.5,23.0,00.0,32.3,25.4,06.8,0000.0,0010.44,0002.00,0000.66
2021-12-21 17:17:00,,0824.0,5.01,0.00,23.5,23.0,00.0,32.3,25.4,06.8,0000.0,0009.29,0001.97,0000.64
2021-12-21 17:18:00,,0823.8,4.99,0.00,23.6,23.0,00.0,32.3,25.5,06.8,0000.0,0008.75,0001.92,0000.62
2021-12-21 17:19:00,,0824.0,5.01,0.00,23.6,23.0,00.0,32.4,25.5,06.7,0000.0,0009.10,0001.76,0000.60
2021-12-21 17:20:00,,0824.1,4.99,0.00,23.6,23.0,00.0,32.4,25.5,06.8,0000.0,0009.15,0001.72,0000.59
2021-12-21 17:21:00,,0824.1,5.00,0.00,23.6,23.0,00.0,32.4,25.5,06.8,0000.0,0009.08,0001.70,0000.59
2021-12-21 17:22:00,,0824.1,5.00,0.00,23.6,23.0,00.0,32.4,25.5,06.8,0000.0,0009.94,0001.73,0000.59
2021-12-21 17:23:00,,0824.1,5.00,0.00,23.6,23.0,00.0,32.4,25.5,06.7,0000.0,0010.99,0001.76,0000.58
2021-12-21 17:24:00,,0824.0,5.01,0.00,23.6,23.1,00.0,32.4,25.5,06.7,0000.0,0010.99,0001.66,0000.58
2021-12-21 17:25:00,,0824.1,5.00,0.00,23.7,23.1,00.0,32.5,25.5,06.8,0000.0,0010.80,0001.56,0000.57
2021-12-21 17:26:00,,0824.2,4.99,0.00,23.7,23.1,00.0,32.5,25.5,06.8,0000.0,0010.73,0001.57,0000.57
2021-12-21 17:27:00,,0824.1,5.00,0.00,23.7,23.1,00.0,32.5,25.5,06.6,0000.0,0011.25,0001.55,0000.57
2021-12-21 17:28:00,,0824.1,4.99,0.00,23.7,23.2,00.0,32.5,25.5,06.5,0000.0,0011.58,0001.49,0000.54
2021-12-21 17:29:00,,0824.1,5.01,0.00,23.8,23.2,00.0,32.6,25.5,06.4,0000.0,0011.72,0001.47,0000.52
2021-12-21 17:30:00,,0824.1,4.98,0.00,23.8,23.2,00.0,32.6,25.6,06.4,0000.0,0011.35,0001.41,0000.50
2021-12-21 17:31:00,,0824.1,5.01,0.00,23.8,23.2,00.0,32.6,25.6,06.5,0000.0,0010.42,0001.36,0000.48
2021-12-21 17:32:00,,0824.3,5.00,0.00,23.8,23.1,00.0,32.6,25.6,06.6,0000.0,0011.20,0001.33,0000.47
2021-12-21 17:33:00,,0824.3,4.99,0.00,23.8,23.2,00.0,32.6,25.6,06.6,0000.0,0010.96,0001.30,0000.46
2021-12-21 17:34:00,,0824.3,4.99,0.00,23.9,23.2,00.0,32.7,25.6,06.6,0000.0,0009.48,0001.23,0000.45
2021-12-21 17:35:00,,0824.1,5.02,0.00,23.9,23.2,00.0,32.7,25.6,06.5,0000.0,0008.68,0001.21,0000.45
2021-12-21 17:36:00,,0824.1,4.99,0.00,23.9,23.2,00.0,32.7,25.7,06.4,0000.0,0009.17,0001.13,0000.42
2021-12-21 17:37:00,,0824.1,5.01,0.00,23.9,23.3,00.0,32.7,25.7,06.4,0000.0,0009.59,0000.99,0000.39
2021-12-21 17:38:00,,0824.1,4.99,0.00,23.9,23.3,00.0,32.7,25.7,06.4,0000.0,0008.49,0000.90,0000.37
2021-12-21 17:39:00,,0824.1,5.00,0.00,24.0,23.3,00.0,32.8,25.7,06.4,0000.0,0007.96,0000.85,0000.36
2021-12-21 17:40:00,,0824.1,5.00,0.00,24.0,23.3,00.0,32.8,25.8,06.4,0000.0,0007.76,0000.83,0000.37
2021-12-21 17:41:00,,0824.1,4.99,0.00,24.0,23.4,00.0,32.8,25.8,06.4,0000.0,0008.05,0000.86,0000.37
2021-12-21 17:42:00,,0824.1,5.00,0.00,24.0,23.4,00.0,32.8,25.8,06.4,0000.0,0008.70,0000.86,0000.38
2021-12-21 17:43:00,,0824.0,5.00,0.00,24.0,23.3,00.0,32.8,25.9,06.5,0000.0,0007.89,0000.87,0000.37
2021-12-21 17:44:00,,0824.0,4.99,0.00,24.1,23.4,00.0,32.9,25.9,06.5,0000.0,0006.74,0000.87,0000.37
2021-12-21 17:45:00,,0823.9,4.99,0.00,24.1,23.4,00.0,32.9,25.9,06.6,0000.0,0006.80,0000.86,0000.36
2021-12-21 17:46:00,,0824.0,5.01,0.00,24.1,23.4,00.0,32.9,26.0,06.6,0000.0,0006.57,0000.80,0000.34
2021-12-21 17:47:00,,0824.1,5.01,0.00,24.1,23.4,00.0,32.9,25.9,06.6,0000.0,0005.83,0000.77,0000.33
2021-12-21 17:48:00,,0824.1,4.99,0.00,24.1,23.4,00.0,33.0,25.9,06.6,0000.0,0004.27,0000.76,0000.33
2021-12-21 17:49:00,,0824.0,5.00,0.00,24.1,23.3,00.0,33.0,25.9,06.6,0000.0,0003.88,0000.76,0000.33
2021-12-21 17:50:00,,0824.1,5.00,0.00,24.1,23.3,00.0,33.0,25.9,06.7,0000.0,0003.83,0000.75,0000.33
2021-12-21 17:51:00,,0824.1,5.00,0.00,24.2,23.3,00.0,33.0,25.9,06.7,0000.0,0003.55,0000.68,0000.33
2021-12-21 17:52:00,,0824.0,5.00,0.00,24.2,23.4,00.0,33.0,25.9,06.6,0000.0,0003.04,0000.61,0000.32
2021-12-21 17:53:00,,0824.0,4.99,0.00,24.2,23.4,00.0,33.0,25.9,06.6,0000.0,0001.56,0000.56,0000.30
2021-12-21 17:54:00,,0824.0,5.00,0.00,24.1,23.4,00.0,33.1,25.9,06.6,0000.0,0001.13,0000.49,0000.28
2021-12-21 17:55:00,,0824.0,5.00,0.00,24.2,23.4,00.0,33.1,25.9,06.6,0000.0,0000.95,0000.38,0000.26
2021-12-21 17:56:00,,0824.0,5.00,0.00,24.2,23.4,00.0,33.1,25.9,06.6,0000.0,0001.54,0000.33,0000.25
2021-12-21 17:57:00,,0823.9,5.01,0.00,24.2,23.4,00.0,33.1,25.9,06.7,0000.0,0001.58,0000.34,0000.24
2021-12-21 17:58:00,,0823.8,5.00,0.00,24.2,23.4,00.0,33.1,25.9,06.6,0000.0,0002.15,0000.35,0000.24
2021-12-21 17:59:00,,0823.8,4.99,0.00,24.1,23.4,00.0,33.1,25.9,06.6,0000.0,0002.20,0000.38,0000.25
